Weather History for Del Bajio, Mexico

Change the Weather History Date:

Wednesday, March 13, 2013

  Actual Average Record
Temperature  
Mean Temperature 62 °F -  
Max Temperature 73 °F 81 °F 95 °F (2006)
Min Temperature 51 °F 48 °F 42 °F (1999)
Degree Days  
Heating Degree Days 3    
Growing Degree Days 12 (Base 50)    
Moisture  
Dew Point 34 °F    
Average Humidity 37    
Maximum Humidity 47    
Minimum Humidity 23    
Precipitation  
Precipitation 0.00 in - - ()
Sea Level Pressure  
Sea Level Pressure 30.18 in    
Wind  
Wind Speed 7 mph ()    
Max Wind Speed 17 mph    
Max Gust Speed 23 mph    
Visibility 9.1 miles    
Events      
Averages and records for this station are not official NWS values.
T = Trace of Precipitation, MM = Missing Value Source: Averaged Metar Reports

Daily Weather History Graph

Daily Weather History Graph

Search for Another Location

Airport:

Trip Planner

Search our weather history database for the weather conditions in past years. The results will help you decide how hot, cold, wet, or windy it might be!

Date:

Astronomy

Mar. 13, 2013 Rise Set
Actual Time 6:55 AM CST 6:54 PM CST
Civil Twilight 6:33 AM CST 7:17 PM CST
Nautical Twilight 6:08 AM CST 7:42 PM CST
Astronomical Twilight 5:42 AM CST 8:08 PM CST
Moon 7:56 AM CST (3/13) 8:49 PM CST (3/13)
Length of Visible Light 12h 43m
Length of Day
11h 58m
Waxing Crescent, 4% of the Moon is Illuminated
Mar 13
Waxing Crescent
Mar 19
First Quarter
Mar 27
Full
Apr 2
Last Quarter
Apr 10
New

Hourly Weather History & Observations

Time (CST) Temp. Dew Point Humidity Pressure Visibility Wind Dir Wind Speed Gust Speed Precip Events Conditions
12:40 AM 55.4 °F 32.0 °F 41% 30.27 in 8.0 mi East 8.1 mph - N/A   Scattered Clouds
1:50 AM 53.6 °F 30.2 °F 41% 30.26 in 8.0 mi Calm Calm - N/A   Scattered Clouds
2:40 AM 51.8 °F 32.0 °F 47% 29.88 in 8.0 mi Calm Calm - N/A   Scattered Clouds
5:43 AM 55.4 °F 32.0 °F 41% 29.92 in 8.0 mi Calm Calm - N/A   Scattered Clouds
6:43 AM 53.6 °F 32.0 °F 44% 30.27 in 10.0 mi ENE 6.9 mph - N/A   Mostly Cloudy
8:45 AM 57.2 °F 33.8 °F 41% 30.07 in 10.0 mi ENE 10.4 mph - N/A   Overcast
9:40 AM 59.0 °F 35.6 °F 42% 30.35 in 10.0 mi NE 10.4 mph - N/A   Overcast
11:48 AM 64.4 °F 33.8 °F 32% 30.09 in 10.0 mi NE 9.2 mph - N/A   Overcast
12:47 PM 66.2 °F 33.8 °F 30% 30.35 in 10.0 mi ENE 9.2 mph - N/A   Overcast
1:48 PM 73.4 °F 33.8 °F 23% 30.29 in 10.0 mi NNE 8.1 mph - N/A   Overcast
2:55 PM 71.6 °F 33.8 °F 25% 29.95 in 10.0 mi NNE 15.0 mph - N/A   Overcast
3:41 PM 69.8 °F 33.8 °F 27% 30.27 in 10.0 mi NNE 17.3 mph - N/A   Overcast
4:46 PM 66.2 °F 33.8 °F 30% 30.27 in 10.0 mi NNE 12.7 mph - N/A   Overcast
5:40 PM 64.4 °F 33.8 °F 32% 29.95 in 10.0 mi NE 11.5 mph 23.0 mph N/A   Overcast
6:42 PM 64.4 °F 33.8 °F 32% 30.27 in 10.0 mi NE 9.2 mph - N/A   Overcast
7:41 PM 62.6 °F 33.8 °F 34% 30.27 in 8.0 mi NE 9.2 mph - N/A   Overcast
8:41 PM 60.8 °F 35.6 °F 39% 30.01 in 8.0 mi NE 11.5 mph - N/A   Overcast
9:48 PM 57.2 °F 33.8 °F 41% 30.33 in 8.0 mi NNE 16.1 mph - N/A   Mostly Cloudy
10:48 PM 55.4 °F 35.6 °F 47% 30.36 in 8.0 mi NE 17.3 mph - N/A   Mostly Cloudy
11:47 PM 55.4 °F 35.6 °F 47% 30.08 in 8.0 mi NE 17.3 mph - N/A   Mostly Cloudy